Tekamah, NE

8:27 AM CST on February 09, 2016 (GMT -0600)
Tekamah

Weather History for KTQE - November, 2014

Change the Weather History Date:

Wednesday, November 12, 2014

  Actual Average Record
Temperature  
Mean Temperature 19 °F -  
Max Temperature 26 °F 46 °F 73 °F (2005)
Min Temperature 12 °F 25 °F -3 °F (1986)
Degree Days  
Heating Degree Days 46    
Moisture  
Dew Point 9 °F    
Average Humidity 65    
Maximum Humidity 74    
Minimum Humidity 51    
Precipitation  
Precipitation 0.00 in - - ()
Sea Level Pressure  
Sea Level Pressure 30.54 in    
Wind  
Wind Speed 16 mph (NW)    
Max Wind Speed 22 mph    
Max Gust Speed 30 mph    
Visibility 10 miles    
Events      
Averages and records for this station are not official NWS values.
T = Trace of Precipitation, MM = Missing Value Source: NWS Daily Summary

Daily Weather History Graph

Daily Weather History Graph

Search for Another Location

Airport or City:

Trip Planner

Search our weather history database for the weather conditions in past years. The results will help you decide how hot, cold, wet, or windy it might be!

Date:

Astronomy

Nov. 12, 2014 Rise Set
Actual Time 7:10 AM CST 5:06 PM CST
Civil Twilight 6:40 AM CST 5:36 PM CST
Nautical Twilight 6:07 AM CST 6:10 PM CST
Astronomical Twilight 5:34 AM CST 6:42 PM CST
Moon 10:28 PM CST (11/12) 11:56 AM CST (11/12)
Length of Visible Light 10h 55m
Length of Day
9h 56m
Waning Gibbous, 68% of the Moon is Illuminated
Nov 12
Waning Gibbous
Nov 14
Last Quarter
Nov 22
New
Nov 29
First Quarter
Dec 6
Full

Hourly Weather History & Observations

Time (CST) Temp. Windchill Dew Point Humidity Pressure Visibility Wind Dir Wind Speed Gust Speed Precip Events Conditions
12:54 AM 17.1 °F 5.0 °F 8.1 °F 68% 30.51 in 10.0 mi WNW 10.4 mph - N/A   Overcast
1:54 AM 17.1 °F 1.5 °F 7.0 °F 65% 30.51 in 10.0 mi NW 17.3 mph - N/A   Overcast
2:54 AM 16.0 °F 0.1 °F 7.0 °F 68% 30.52 in 10.0 mi NW 17.3 mph 26.5 mph N/A   Clear
4:54 AM 14.0 °F -3.0 °F 6.1 °F 71% 30.53 in 10.0 mi NW 18.4 mph 25.3 mph N/A   Clear
5:54 AM 12.9 °F -2.2 °F 5.0 °F 71% 30.55 in 10.0 mi WNW 13.8 mph - N/A   Clear
6:54 AM 12.0 °F -4.0 °F 3.9 °F 70% 30.56 in 10.0 mi WNW 15.0 mph - N/A   Clear
7:54 AM 12.0 °F -0.4 °F 3.9 °F 70% 30.57 in 10.0 mi WNW 9.2 mph 21.9 mph N/A   Clear
8:54 AM 14.0 °F -2.5 °F 6.1 °F 71% 30.58 in 10.0 mi NW 17.3 mph 25.3 mph N/A   Partly Cloudy
9:13 AM 15.1 °F -2.0 °F 6.1 °F 68% 30.53 in 10.0 mi NW 19.6 mph 27.6 mph N/A   Mostly Cloudy
9:54 AM 17.1 °F 2.0 °F 7.0 °F 65% 30.58 in 10.0 mi WNW 16.1 mph - N/A   Mostly Cloudy
10:54 AM 19.9 °F 4.8 °F 8.1 °F 60% 30.56 in 10.0 mi WNW 18.4 mph - N/A   Mostly Cloudy
11:13 AM 19.9 °F 4.8 °F 8.1 °F 60% 30.51 in 10.0 mi WNW 18.4 mph 26.5 mph N/A   Scattered Clouds
11:54 AM 21.0 °F 5.0 °F 9.0 °F 60% 30.54 in 10.0 mi WNW 21.9 mph 28.8 mph N/A   Clear
12:54 PM 23.0 °F 7.6 °F 10.0 °F 58% 30.52 in 10.0 mi WNW 21.9 mph - N/A   Clear
1:54 PM 26.1 °F 12.0 °F 10.0 °F 51% 30.50 in 10.0 mi NW 20.7 mph 29.9 mph N/A   Scattered Clouds
2:54 PM 26.1 °F 13.6 °F 10.0 °F 51% 30.51 in 10.0 mi NW 16.1 mph - N/A   Overcast
3:54 PM 24.1 °F 9.4 °F 10.0 °F 55% 30.51 in 10.0 mi NW 20.7 mph - N/A   Overcast
4:54 PM 21.9 °F 8.7 °F 9.0 °F 58% 30.53 in 10.0 mi NW 15.0 mph 23.0 mph N/A   Overcast
5:54 PM 21.0 °F 7.1 °F 10.0 °F 63% 30.54 in 10.0 mi NW 16.1 mph - N/A   Scattered Clouds
6:54 PM 19.9 °F 7.3 °F 10.0 °F 65% 30.56 in 10.0 mi WNW 12.7 mph - N/A   Scattered Clouds
7:54 PM 21.9 °F 8.7 °F 10.9 °F 63% 30.56 in 10.0 mi NW 15.0 mph - N/A   Overcast
8:54 PM 21.0 °F 7.1 °F 12.0 °F 68% 30.56 in 10.0 mi NW 16.1 mph - 0.00 in   Overcast
9:17 PM 19.9 °F 5.7 °F 10.9 °F 68% 30.52 in 10.0 mi NW 16.1 mph - N/A   Overcast
9:26 PM 19.9 °F 6.2 °F 10.9 °F 68% 30.52 in 10.0 mi NW 15.0 mph - N/A   Mostly Cloudy
9:54 PM 19.0 °F 6.1 °F 10.9 °F 71% 30.56 in 10.0 mi NW 12.7 mph - N/A   Partly Cloudy
10:54 PM 19.9 °F 6.2 °F 12.9 °F 74% 30.56 in 10.0 mi NW 15.0 mph - N/A   Overcast
11:54 PM 19.9 °F 5.7 °F 12.9 °F 74% 30.56 in 10.0 mi NW 16.1 mph - N/A   Overcast